Time,TemperatureF,DewpointF,PressureIn,WindDirection,WindDirectionDegrees,WindSpeedMPH,WindSpeedGustMPH,Humidity,HourlyPrecipIn,Conditions,Clouds,dailyrainin,SoftwareType,DateUTC
2013-01-17 00:00:00,17.3,14.6,30.44,NE,47,0.0,0.0,89,0.00,,,0.00,Wunderground v.1.12,2013-01-17 07:00:00,
2013-01-17 00:10:00,17.2,14.5,30.43,NE,47,0.0,0.0,89,0.00,,,0.00,Wunderground v.1.12,2013-01-17 07:10:00,
2013-01-17 00:15:00,17.1,14.4,30.43,NE,47,0.0,0.0,89,0.00,,,0.00,Wunderground v.1.12,2013-01-17 07:15:00,
2013-01-17 00:20:00,17.1,14.4,30.43,NE,47,0.0,0.0,89,0.00,,,0.00,Wunderground v.1.12,2013-01-17 07:20:00,
2013-01-17 00:25:00,17.1,14.7,30.43,NE,51,0.0,0.0,90,0.00,,,0.00,Wunderground v.1.12,2013-01-17 07:25:00,
2013-01-17 00:30:00,17.0,14.6,30.43,NE,51,0.0,0.0,90,0.00,,,0.00,Wunderground v.1.12,2013-01-17 07:30:00,
2013-01-17 00:40:00,16.8,14.1,30.44,NE,51,0.0,0.0,89,0.00,,,0.00,Wunderground v.1.12,2013-01-17 07:40:00,
2013-01-17 00:45:00,16.8,14.1,30.44,NE,47,0.0,0.0,89,0.00,,,0.00,Wunderground v.1.12,2013-01-17 07:45:00,
2013-01-17 00:50:00,16.7,14.3,30.44,NE,49,0.0,0.0,90,0.00,,,0.00,Wunderground v.1.12,2013-01-17 07:50:00,
2013-01-17 00:55:00,16.7,14.0,30.44,ENE,59,0.0,0.0,89,0.00,,,0.00,Wunderground v.1.12,2013-01-17 07:55:00,
2013-01-17 01:00:00,16.6,13.9,30.44,ENE,59,0.0,0.0,89,0.00,,,0.00,Wunderground v.1.12,2013-01-17 08:00:00,
2013-01-17 01:05:00,16.5,14.1,30.44,NE,43,0.0,0.0,90,0.00,,,0.00,Wunderground v.1.12,2013-01-17 08:05:00,
2013-01-17 01:15:00,16.6,13.9,30.44,NE,46,0.0,0.0,89,0.00,,,0.00,Wunderground v.1.12,2013-01-17 08:15:00,
2013-01-17 01:20:00,16.4,14.0,30.44,NE,47,0.0,0.0,90,0.00,,,0.00,Wunderground v.1.12,2013-01-17 08:20:00,
2013-01-17 01:25:00,16.4,13.7,30.44,NE,47,0.0,0.0,89,0.00,,,0.00,Wunderground v.1.12,2013-01-17 08:25:00,
2013-01-17 01:30:00,16.4,13.7,30.44,NE,51,0.0,0.0,89,0.00,,,0.00,Wunderground v.1.12,2013-01-17 08:30:00,
2013-01-17 01:35:00,16.2,13.5,30.44,ENE,59,0.0,0.0,89,0.00,,,0.00,Wunderground v.1.12,2013-01-17 08:35:00,
2013-01-17 01:40:00,15.9,13.2,30.44,NE,41,0.0,0.0,89,0.00,,,0.00,Wunderground v.1.12,2013-01-17 08:40:00,
2013-01-17 01:45:00,16.1,13.7,30.44,NE,50,0.0,0.0,90,0.00,,,0.00,Wunderground v.1.12,2013-01-17 08:45:00,
2013-01-17 01:50:00,16.3,13.9,30.44,ENE,67,0.0,0.0,90,0.00,,,0.00,Wunderground v.1.12,2013-01-17 08:50:00,
2013-01-17 01:55:00,16.3,13.9,30.44,ENE,67,0.0,0.0,90,0.00,,,0.00,Wunderground v.1.12,2013-01-17 08:55:00,
2013-01-17 02:00:00,16.1,13.7,30.43,ENE,67,0.0,0.0,90,0.00,,,0.00,Wunderground v.1.12,2013-01-17 09:00:00,
2013-01-17 02:05:00,16.2,13.8,30.43,NE,51,0.0,0.0,90,0.00,,,0.00,Wunderground v.1.12,2013-01-17 09:05:00,
2013-01-17 02:15:00,16.4,14.2,30.44,NE,49,0.0,0.0,91,0.00,,,0.00,Wunderground v.1.12,2013-01-17 09:15:00,
2013-01-17 02:20:00,16.4,14.0,30.44,NE,49,0.0,0.0,90,0.00,,,0.00,Wunderground v.1.12,2013-01-17 09:20:00,
2013-01-17 02:25:00,16.3,13.9,30.44,NE,49,0.0,0.0,90,0.00,,,0.00,Wunderground v.1.12,2013-01-17 09:25:00,
2013-01-17 02:30:00,16.5,14.1,30.44,NE,49,0.0,0.0,90,0.00,,,0.00,Wunderground v.1.12,2013-01-17 09:30:00,
2013-01-17 02:35:00,16.5,14.3,30.44,NE,49,0.0,0.0,91,0.00,,,0.00,Wunderground v.1.12,2013-01-17 09:35:00,
2013-01-17 02:40:00,16.4,14.0,30.44,NE,49,0.0,0.0,90,0.00,,,0.00,Wunderground v.1.12,2013-01-17 09:40:00,
2013-01-17 02:50:00,16.3,13.9,30.44,NE,49,0.0,0.0,90,0.00,,,0.00,Wunderground v.1.12,2013-01-17 09:50:00,
2013-01-17 02:55:00,16.0,13.6,30.44,NE,53,0.0,0.0,90,0.00,,,0.00,Wunderground v.1.12,2013-01-17 09:55:00,
2013-01-17 03:00:00,16.2,13.8,30.44,NE,53,0.0,0.0,90,0.00,,,0.00,Wunderground v.1.12,2013-01-17 10:00:00,
2013-01-17 03:05:00,16.2,13.8,30.44,NE,52,0.0,0.0,90,0.00,,,0.00,Wunderground v.1.12,2013-01-17 10:05:00,
2013-01-17 03:10:00,16.0,13.3,30.44,NE,55,0.0,0.0,89,0.00,,,0.00,Wunderground v.1.12,2013-01-17 10:10:00,
2013-01-17 03:20:00,15.6,13.2,30.44,NE,55,0.0,0.0,90,0.00,,,0.00,Wunderground v.1.12,2013-01-17 10:20:00,
2013-01-17 03:25:00,15.6,13.2,30.44,NE,55,0.0,0.0,90,0.00,,,0.00,Wunderground v.1.12,2013-01-17 10:25:00,
2013-01-17 03:30:00,15.5,12.8,30.44,NE,42,0.0,0.0,89,0.00,,,0.00,Wunderground v.1.12,2013-01-17 10:30:00,
2013-01-17 03:35:00,15.4,13.0,30.45,NE,42,0.0,0.0,90,0.00,,,0.00,Wunderground v.1.12,2013-01-17 10:35:00,
2013-01-17 03:40:00,15.7,13.0,30.45,NE,42,0.0,0.0,89,0.00,,,0.00,Wunderground v.1.12,2013-01-17 10:40:00,
2013-01-17 03:45:00,15.8,13.1,30.44,NE,43,0.0,0.0,89,0.00,,,0.00,Wunderground v.1.12,2013-01-17 10:45:00,
2013-01-17 03:50:00,15.6,12.9,30.44,ENE,58,0.0,0.0,89,0.00,,,0.00,Wunderground v.1.12,2013-01-17 10:50:00,
2013-01-17 03:55:00,15.6,12.9,30.44,ENE,58,0.0,0.0,89,0.00,,,0.00,Wunderground v.1.12,2013-01-17 10:55:00,
2013-01-17 04:00:00,15.6,12.9,30.44,ENE,58,0.0,0.0,89,0.00,,,0.00,Wunderground v.1.12,2013-01-17 11:00:00,
2013-01-17 04:05:00,15.4,13.0,30.44,ENE,57,0.0,0.0,90,0.00,,,0.00,Wunderground v.1.12,2013-01-17 11:05:00,
2013-01-17 04:10:00,15.5,12.8,30.44,NE,56,0.0,0.0,89,0.00,,,0.00,Wunderground v.1.12,2013-01-17 11:10:00,
2013-01-17 04:15:00,15.6,12.9,30.44,NE,56,0.0,0.0,89,0.00,,,0.00,Wunderground v.1.12,2013-01-17 11:15:00,
2013-01-17 04:25:00,15.3,12.6,30.44,NE,56,0.0,0.0,89,0.00,,,0.00,Wunderground v.1.12,2013-01-17 11:25:00,
2013-01-17 04:30:00,15.4,12.7,30.44,ENE,57,0.0,0.0,89,0.00,,,0.00,Wunderground v.1.12,2013-01-17 11:30:00,
2013-01-17 04:35:00,15.4,12.7,30.44,NE,56,0.0,0.0,89,0.00,,,0.00,Wunderground v.1.12,2013-01-17 11:35:00,
2013-01-17 04:40:00,15.2,12.3,30.44,NE,56,0.0,0.0,88,0.00,,,0.00,Wunderground v.1.12,2013-01-17 11:40:00,
2013-01-17 04:45:00,15.1,12.2,30.44,NE,56,0.0,0.0,88,0.00,,,0.00,Wunderground v.1.12,2013-01-17 11:45:00,
2013-01-17 04:55:00,15.0,12.1,30.44,NE,56,0.0,0.0,88,0.00,,,0.00,Wunderground v.1.12,2013-01-17 11:55:00,
2013-01-17 05:00:00,14.8,11.9,30.44,NE,56,0.0,0.0,88,0.00,,,0.00,Wunderground v.1.12,2013-01-17 12:00:00,
2013-01-17 05:05:00,14.8,11.9,30.44,NE,56,0.0,0.0,88,0.00,,,0.00,Wunderground v.1.12,2013-01-17 12:05:00,
2013-01-17 05:10:00,14.6,11.7,30.44,NE,56,0.0,0.0,88,0.00,,,0.00,Wunderground v.1.12,2013-01-17 12:10:00,
2013-01-17 05:15:00,14.6,11.9,30.44,ENE,57,0.0,0.0,89,0.00,,,0.00,Wunderground v.1.12,2013-01-17 12:15:00,
2013-01-17 05:20:00,14.8,11.9,30.44,NE,56,0.0,0.0,88,0.00,,,0.00,Wunderground v.1.12,2013-01-17 12:20:00,
2013-01-17 05:30:00,14.5,11.6,30.44,NE,56,0.0,0.0,88,0.00,,,0.00,Wunderground v.1.12,2013-01-17 12:30:00,
2013-01-17 05:35:00,14.4,11.5,30.43,NE,56,0.0,0.0,88,0.00,,,0.00,Wunderground v.1.12,2013-01-17 12:35:00,
2013-01-17 05:40:00,14.4,11.5,30.43,NE,56,0.0,0.0,88,0.00,,,0.00,Wunderground v.1.12,2013-01-17 12:40:00,
2013-01-17 05:45:00,14.5,11.6,30.43,NE,56,0.0,0.0,88,0.00,,,0.00,Wunderground v.1.12,2013-01-17 12:45:00,
2013-01-17 05:50:00,14.5,11.6,30.43,NE,56,0.0,0.0,88,0.00,,,0.00,Wunderground v.1.12,2013-01-17 12:50:00,
2013-01-17 06:00:00,14.7,12.0,30.43,NE,56,0.0,0.0,89,0.00,,,0.00,Wunderground v.1.12,2013-01-17 13:00:00,
2013-01-17 06:05:00,14.5,11.9,30.43,NE,56,0.0,0.0,89,0.00,,,0.00,Wunderground v.1.12,2013-01-17 13:05:00,
2013-01-17 06:10:00,14.4,11.8,30.43,NE,56,0.0,0.0,89,0.00,,,0.00,Wunderground v.1.12,2013-01-17 13:10:00,
2013-01-17 06:15:00,14.4,11.5,30.43,NE,56,0.0,0.0,88,0.00,,,0.00,Wunderground v.1.12,2013-01-17 13:15:00,
2013-01-17 06:20:00,14.3,11.4,30.43,NE,56,0.0,0.0,88,0.00,,,0.00,Wunderground v.1.12,2013-01-17 13:20:00,
2013-01-17 06:30:00,14.1,11.2,30.43,NE,56,0.0,0.0,88,0.00,,,0.00,Wunderground v.1.12,2013-01-17 13:30:00,
2013-01-17 06:35:00,14.2,11.6,30.43,NE,56,0.0,0.0,89,0.00,,,0.00,Wunderground v.1.12,2013-01-17 13:35:00,
2013-01-17 06:40:00,14.1,11.2,30.43,NE,56,0.0,0.0,88,0.00,,,0.00,Wunderground v.1.12,2013-01-17 13:40:00,
2013-01-17 06:45:00,14.1,11.2,30.43,NE,56,0.0,0.0,88,0.00,,,0.00,Wunderground v.1.12,2013-01-17 13:45:00,
2013-01-17 06:50:00,14.0,10.8,30.43,NE,56,0.0,0.0,87,0.00,,,0.00,Wunderground v.1.12,2013-01-17 13:50:00,
2013-01-17 06:55:00,13.7,10.5,30.43,NE,56,0.0,0.0,87,0.00,,,0.00,Wunderground v.1.12,2013-01-17 13:55:00,
2013-01-17 07:05:00,13.6,10.7,30.43,NE,53,0.0,0.0,88,0.00,,,0.00,Wunderground v.1.12,2013-01-17 14:05:00,
2013-01-17 07:10:00,13.6,10.5,30.42,NE,53,0.0,0.0,87,0.00,,,0.00,Wunderground v.1.12,2013-01-17 14:10:00,
2013-01-17 07:15:00,13.6,10.5,30.42,NE,53,0.0,0.0,87,0.00,,,0.00,Wunderground v.1.12,2013-01-17 14:15:00,
2013-01-17 07:25:00,13.6,10.5,30.43,NE,53,0.0,0.0,87,0.00,,,0.00,Wunderground v.1.12,2013-01-17 14:25:00,
2013-01-17 07:35:00,13.6,10.5,30.43,NE,53,0.0,0.0,87,0.00,,,0.00,Wunderground v.1.12,2013-01-17 14:35:00,
2013-01-17 07:40:00,13.4,10.5,30.43,NE,53,0.0,0.0,88,0.00,,,0.00,Wunderground v.1.12,2013-01-17 14:40:00,
2013-01-17 07:45:00,13.3,10.4,30.43,NE,49,0.0,0.0,88,0.00,,,0.00,Wunderground v.1.12,2013-01-17 14:45:00,
2013-01-17 07:50:00,13.2,10.3,30.43,NE,49,0.0,0.0,88,0.00,,,0.00,Wunderground v.1.12,2013-01-17 14:50:00,
2013-01-17 07:55:00,12.8,9.9,30.44,NE,49,0.0,0.0,88,0.00,,,0.00,Wunderground v.1.12,2013-01-17 14:55:00,
2013-01-17 08:00:00,13.2,10.3,30.44,NE,49,0.0,0.0,88,0.00,,,0.00,Wunderground v.1.12,2013-01-17 15:00:00,
2013-01-17 08:10:00,12.9,10.0,30.44,NE,49,0.0,0.0,88,0.00,,,0.00,Wunderground v.1.12,2013-01-17 15:10:00,
2013-01-17 08:15:00,13.0,10.1,30.44,NE,49,0.0,0.0,88,0.00,,,0.00,Wunderground v.1.12,2013-01-17 15:15:00,
2013-01-17 08:20:00,13.1,10.2,30.44,NE,49,0.0,0.0,88,0.00,,,0.00,Wunderground v.1.12,2013-01-17 15:20:00,
2013-01-17 08:25:00,13.3,10.4,30.44,NE,49,0.0,0.0,88,0.00,,,0.00,Wunderground v.1.12,2013-01-17 15:25:00,
2013-01-17 08:30:00,13.2,10.1,30.45,NE,49,0.0,0.0,87,0.00,,,0.00,Wunderground v.1.12,2013-01-17 15:30:00,
2013-01-17 08:40:00,12.7,9.6,30.45,NE,49,0.0,0.0,87,0.00,,,0.00,Wunderground v.1.12,2013-01-17 15:40:00,
2013-01-17 08:45:00,12.7,9.6,30.45,NE,53,0.0,0.0,87,0.00,,,0.00,Wunderground v.1.12,2013-01-17 15:45:00,
2013-01-17 08:55:00,13.1,10.0,30.45,NE,49,0.0,0.0,87,0.00,,,0.00,Wunderground v.1.12,2013-01-17 15:55:00,
2013-01-17 09:00:00,13.2,10.1,30.45,NE,49,0.0,0.0,87,0.00,,,0.00,Wunderground v.1.12,2013-01-17 16:00:00,
2013-01-17 09:05:00,13.3,10.4,30.45,NE,49,0.0,0.0,88,0.00,,,0.00,Wunderground v.1.12,2013-01-17 16:05:00,
2013-01-17 09:15:00,13.4,10.5,30.46,NE,49,0.0,0.0,88,0.00,,,0.00,Wunderground v.1.12,2013-01-17 16:15:00,
2013-01-17 09:20:00,13.8,10.9,30.46,NE,49,0.0,0.0,88,0.00,,,0.00,Wunderground v.1.12,2013-01-17 16:20:00,
2013-01-17 09:25:00,13.7,10.8,30.46,NE,49,0.0,0.0,88,0.00,,,0.00,Wunderground v.1.12,2013-01-17 16:25:00,
2013-01-17 09:30:00,14.2,11.3,30.46,NE,49,0.0,0.0,88,0.00,,,0.00,Wunderground v.1.12,2013-01-17 16:30:00,
2013-01-17 09:35:00,14.3,11.4,30.45,NE,49,0.0,0.0,88,0.00,,,0.00,Wunderground v.1.12,2013-01-17 16:35:00,
2013-01-17 09:40:00,14.5,11.6,30.45,NE,49,0.0,0.0,88,0.00,,,0.00,Wunderground v.1.12,2013-01-17 16:40:00,
2013-01-17 09:45:00,14.6,11.4,30.45,NE,49,0.0,0.0,87,0.00,,,0.00,Wunderground v.1.12,2013-01-17 16:45:00,
2013-01-17 09:55:00,14.9,11.7,30.46,NE,49,0.0,0.0,87,0.00,,,0.00,Wunderground v.1.12,2013-01-17 16:55:00,
2013-01-17 10:00:00,15.0,12.1,30.45,NE,49,0.0,0.0,88,0.00,,,0.00,Wunderground v.1.12,2013-01-17 17:00:00,
2013-01-17 10:05:00,15.3,12.4,30.45,NE,49,0.0,0.0,88,0.00,,,0.00,Wunderground v.1.12,2013-01-17 17:05:00,
2013-01-17 10:10:00,15.5,12.6,30.45,NE,49,0.0,0.0,88,0.00,,,0.00,Wunderground v.1.12,2013-01-17 17:10:00,
2013-01-17 10:15:00,15.7,13.0,30.45,NE,49,0.0,0.0,89,0.00,,,0.00,Wunderground v.1.12,2013-01-17 17:15:00,
2013-01-17 10:25:00,16.2,13.5,30.45,NE,49,0.0,0.0,89,0.00,,,0.00,Wunderground v.1.12,2013-01-17 17:25:00,
2013-01-17 10:30:00,16.3,13.6,30.45,NE,49,0.0,0.0,89,0.00,,,0.00,Wunderground v.1.12,2013-01-17 17:30:00,
2013-01-17 10:35:00,16.8,14.4,30.45,NE,49,0.0,0.0,90,0.00,,,0.00,Wunderground v.1.12,2013-01-17 17:35:00,
2013-01-17 10:40:00,16.9,14.7,30.45,NE,49,0.0,0.0,91,0.00,,,0.00,Wunderground v.1.12,2013-01-17 17:40:00,
2013-01-17 10:45:00,17.4,15.2,30.44,NE,49,0.0,0.0,91,0.00,,,0.00,Wunderground v.1.12,2013-01-17 17:45:00,
2013-01-17 10:55:00,17.9,16.0,30.44,NE,49,0.0,0.0,92,0.00,,,0.00,Wunderground v.1.12,2013-01-17 17:55:00,
2013-01-17 11:00:00,18.2,16.5,30.44,NE,49,0.0,0.0,93,0.00,,,0.00,Wunderground v.1.12,2013-01-17 18:00:00,
2013-01-17 11:05:00,18.4,16.7,30.43,NE,49,0.0,0.0,93,0.00,,,0.00,Wunderground v.1.12,2013-01-17 18:05:00,
2013-01-17 11:10:00,18.6,17.2,30.43,NE,49,0.0,0.0,94,0.00,,,0.00,Wunderground v.1.12,2013-01-17 18:10:00,
2013-01-17 11:15:00,18.8,17.1,30.43,NE,49,0.0,0.0,93,0.00,,,0.00,Wunderground v.1.12,2013-01-17 18:15:00,
2013-01-17 11:20:00,19.1,17.4,30.43,NE,49,0.0,0.0,93,0.00,,,0.00,Wunderground v.1.12,2013-01-17 18:20:00,
2013-01-17 11:25:00,19.2,17.5,30.42,NE,49,0.0,0.0,93,0.00,,,0.00,Wunderground v.1.12,2013-01-17 18:25:00,
2013-01-17 11:30:00,19.3,17.9,30.42,NE,49,0.0,0.0,94,0.00,,,0.00,Wunderground v.1.12,2013-01-17 18:30:00,
2013-01-17 11:35:00,18.9,17.5,30.42,N/A,-737280,0.0,0.0,94,0.00,,,0.00,Wunderground v.1.12,2013-01-17 18:35:00,
2013-01-17 11:40:00,20.1,18.9,30.41,NE,49,0.0,0.0,95,0.00,,,0.00,Wunderground v.1.12,2013-01-17 18:40:00,
2013-01-17 11:45:00,20.5,19.3,30.41,NE,49,0.0,0.0,95,0.00,,,0.00,Wunderground v.1.12,2013-01-17 18:45:00,
2013-01-17 11:50:00,20.8,19.8,30.40,NE,49,0.0,0.0,96,0.00,,,0.00,Wunderground v.1.12,2013-01-17 18:50:00,
2013-01-17 12:00:00,21.2,20.2,30.39,NE,49,0.0,0.0,96,0.00,,,0.00,Wunderground v.1.12,2013-01-17 19:00:00,
2013-01-17 12:05:00,21.3,20.3,30.39,NE,49,0.0,0.0,96,0.00,,,0.00,Wunderground v.1.12,2013-01-17 19:05:00,
2013-01-17 12:10:00,21.7,20.7,30.39,NE,50,0.0,0.0,96,0.00,,,0.00,Wunderground v.1.12,2013-01-17 19:10:00,
2013-01-17 12:15:00,21.9,20.7,30.39,NE,51,0.0,0.0,95,0.00,,,0.00,Wunderground v.1.12,2013-01-17 19:15:00,
2013-01-17 12:20:00,22.0,20.8,30.39,NE,51,0.0,0.0,95,0.00,,,0.00,Wunderground v.1.12,2013-01-17 19:20:00,
2013-01-17 12:25:00,22.4,21.2,30.39,NE,51,0.0,0.0,95,0.00,,,0.00,Wunderground v.1.12,2013-01-17 19:25:00,
2013-01-17 12:30:00,22.3,20.8,30.39,South,183,0.0,0.0,94,0.00,,,0.00,Wunderground v.1.12,2013-01-17 19:30:00,
2013-01-17 12:35:00,22.2,20.5,30.39,South,184,0.0,0.0,93,0.00,,,0.00,Wunderground v.1.12,2013-01-17 19:35:00,
2013-01-17 12:40:00,22.1,20.1,30.39,South,185,0.0,0.0,92,0.00,,,0.00,Wunderground v.1.12,2013-01-17 19:40:00,
2013-01-17 12:45:00,22.1,20.1,30.39,South,184,0.0,0.0,92,0.00,,,0.00,Wunderground v.1.12,2013-01-17 19:45:00,
2013-01-17 12:50:00,22.2,20.5,30.39,South,184,0.0,0.0,93,0.00,,,0.00,Wunderground v.1.12,2013-01-17 19:50:00,
2013-01-17 12:55:00,22.3,20.6,30.38,South,184,0.0,0.0,93,0.00,,,0.00,Wunderground v.1.12,2013-01-17 19:55:00,
2013-01-17 13:05:00,22.7,21.2,30.38,South,184,0.0,0.0,94,0.00,,,0.00,Wunderground v.1.12,2013-01-17 20:05:00,
2013-01-17 13:10:00,22.9,21.4,30.37,South,184,0.0,0.0,94,0.00,,,0.00,Wunderground v.1.12,2013-01-17 20:10:00,
2013-01-17 13:15:00,23.0,21.5,30.37,South,184,0.0,0.0,94,0.00,,,0.00,Wunderground v.1.12,2013-01-17 20:15:00,
2013-01-17 13:20:00,23.4,-99.9,30.36,South,185,0.0,0.0,255,0.00,,,0.00,Wunderground v.1.12,2013-01-17 20:20:00,
2013-01-17 13:25:00,23.8,22.6,30.36,East,82,0.0,0.0,95,0.00,,,0.00,Wunderground v.1.12,2013-01-17 20:25:00,
2013-01-17 13:30:00,23.9,22.7,30.36,East,82,0.0,0.0,95,0.00,,,0.00,Wunderground v.1.12,2013-01-17 20:30:00,
2013-01-17 13:40:00,24.3,23.3,30.35,East,82,0.0,0.0,96,0.00,,,0.00,Wunderground v.1.12,2013-01-17 20:40:00,
2013-01-17 13:45:00,24.5,23.5,30.35,East,82,0.0,0.0,96,0.00,,,0.00,Wunderground v.1.12,2013-01-17 20:45:00,
2013-01-17 13:50:00,24.8,23.8,30.35,East,82,0.0,0.0,96,0.00,,,0.00,Wunderground v.1.12,2013-01-17 20:50:00,
2013-01-17 14:00:00,25.0,24.0,30.34,East,82,0.0,0.0,96,0.00,,,0.00,Wunderground v.1.12,2013-01-17 21:00:00,
2013-01-17 14:05:00,25.3,24.1,30.33,SSE,154,0.0,0.0,95,0.00,,,0.00,Wunderground v.1.12,2013-01-17 21:05:00,
2013-01-17 14:15:00,25.1,23.6,30.33,SSE,160,0.0,0.0,94,0.00,,,0.00,Wunderground v.1.12,2013-01-17 21:15:00,
2013-01-17 14:20:00,25.3,23.8,30.33,South,188,0.0,0.0,94,0.00,,,0.00,Wunderground v.1.12,2013-01-17 21:20:00,
2013-01-17 14:25:00,25.1,23.6,30.32,South,188,0.0,0.0,94,0.00,,,0.00,Wunderground v.1.12,2013-01-17 21:25:00,
2013-01-17 14:30:00,25.1,23.6,30.32,South,188,0.0,0.0,94,0.00,,,0.00,Wunderground v.1.12,2013-01-17 21:30:00,
2013-01-17 14:35:00,25.0,23.5,30.32,South,188,0.0,0.0,94,0.00,,,0.00,Wunderground v.1.12,2013-01-17 21:35:00,
2013-01-17 14:45:00,25.0,23.8,30.31,SW,229,0.0,0.0,95,0.00,,,0.00,Wunderground v.1.12,2013-01-17 21:45:00,
2013-01-17 14:50:00,25.1,23.6,30.31,SW,228,0.0,0.0,94,0.00,,,0.00,Wunderground v.1.12,2013-01-17 21:50:00,
2013-01-17 14:55:00,25.0,23.8,30.31,SW,228,0.0,0.0,95,0.00,,,0.00,Wunderground v.1.12,2013-01-17 21:55:00,
2013-01-17 15:00:00,25.2,23.7,30.31,South,188,0.0,0.0,94,0.00,,,0.00,Wunderground v.1.12,2013-01-17 22:00:00,
2013-01-17 15:05:00,25.0,23.5,30.31,SSW,206,0.0,0.0,94,0.00,,,0.00,Wunderground v.1.12,2013-01-17 22:05:00,
2013-01-17 15:15:00,25.2,23.7,30.31,SSW,206,0.0,0.0,94,0.00,,,0.00,Wunderground v.1.12,2013-01-17 22:15:00,
2013-01-17 15:20:00,25.2,23.7,30.31,SSW,206,0.0,0.0,94,0.00,,,0.00,Wunderground v.1.12,2013-01-17 22:20:00,
2013-01-17 15:25:00,25.1,23.6,30.30,SSW,206,0.0,0.0,94,0.00,,,0.00,Wunderground v.1.12,2013-01-17 22:25:00,
2013-01-17 15:30:00,25.1,23.6,30.30,SSW,206,0.0,0.0,94,0.00,,,0.00,Wunderground v.1.12,2013-01-17 22:30:00,
2013-01-17 15:35:00,25.1,23.6,30.30,SSW,206,0.0,0.0,94,0.00,,,0.00,Wunderground v.1.12,2013-01-17 22:35:00,
2013-01-17 15:40:00,25.1,23.6,30.30,SSW,206,0.0,0.0,94,0.00,,,0.00,Wunderground v.1.12,2013-01-17 22:40:00,
2013-01-17 15:45:00,25.2,23.7,30.30,SSW,206,0.0,0.0,94,0.00,,,0.00,Wunderground v.1.12,2013-01-17 22:45:00,
2013-01-17 15:55:00,25.1,23.4,30.30,SSW,206,0.0,0.0,93,0.00,,,0.00,Wunderground v.1.12,2013-01-17 22:55:00,
2013-01-17 16:00:00,25.0,23.3,30.29,SSW,206,0.0,0.0,93,0.00,,,0.00,Wunderground v.1.12,2013-01-17 23:00:00,
2013-01-17 16:05:00,24.9,23.2,30.29,SSW,206,0.0,0.0,93,0.00,,,0.00,Wunderground v.1.12,2013-01-17 23:05:00,
2013-01-17 16:10:00,24.8,23.1,30.29,SSW,206,0.0,0.0,93,0.00,,,0.00,Wunderground v.1.12,2013-01-17 23:10:00,
2013-01-17 16:15:00,24.9,22.9,30.29,SSW,206,0.0,0.0,92,0.00,,,0.00,Wunderground v.1.12,2013-01-17 23:15:00,
2013-01-17 16:25:00,24.6,22.6,30.29,SSW,206,0.0,0.0,92,0.00,,,0.00,Wunderground v.1.12,2013-01-17 23:25:00,
2013-01-17 16:30:00,24.5,22.5,30.29,SSW,205,0.0,0.0,92,0.00,,,0.00,Wunderground v.1.12,2013-01-17 23:30:00,
2013-01-17 16:35:00,24.6,22.6,30.29,SSW,206,0.0,0.0,92,0.00,,,0.00,Wunderground v.1.12,2013-01-17 23:35:00,
2013-01-17 16:40:00,24.5,22.5,30.28,SSW,206,0.0,0.0,92,0.00,,,0.00,Wunderground v.1.12,2013-01-17 23:40:00,
2013-01-17 16:45:00,24.4,22.4,30.28,SSW,206,0.0,0.0,92,0.00,,,0.00,Wunderground v.1.12,2013-01-17 23:45:00,
2013-01-17 16:55:00,24.1,22.1,30.28,SSW,205,0.0,0.0,92,0.00,,,0.00,Wunderground v.1.12,2013-01-17 23:55:00,
2013-01-17 17:00:00,23.8,21.3,30.28,SSW,206,0.0,0.0,90,0.00,,,0.00,Wunderground v.1.12,2013-01-18 00:00:00,
2013-01-17 17:05:00,23.8,21.6,30.28,SSW,206,0.0,0.0,91,0.00,,,0.00,Wunderground v.1.12,2013-01-18 00:05:00,
2013-01-17 17:10:00,23.6,21.4,30.28,SSW,206,0.0,0.0,91,0.00,,,0.00,Wunderground v.1.12,2013-01-18 00:10:00,
2013-01-17 17:15:00,23.5,-99.9,30.28,SSW,205,0.0,0.0,255,0.00,,,0.00,Wunderground v.1.12,2013-01-18 00:15:00,
2013-01-17 17:20:00,23.5,-99.9,30.28,SSW,206,0.0,0.0,255,0.00,,,0.00,Wunderground v.1.12,2013-01-18 00:20:00,
2013-01-17 17:30:00,23.2,-99.9,30.28,SSW,205,0.0,0.0,255,0.00,,,0.00,Wunderground v.1.12,2013-01-18 00:30:00,
2013-01-17 17:35:00,22.9,20.4,30.28,SSW,206,0.0,0.0,90,0.00,,,0.00,Wunderground v.1.12,2013-01-18 00:35:00,
2013-01-17 17:40:00,22.8,20.3,30.28,SSW,206,0.0,0.0,90,0.00,,,0.00,Wunderground v.1.12,2013-01-18 00:40:00,
2013-01-17 17:45:00,22.7,20.5,30.28,SSW,206,0.0,0.0,91,0.00,,,0.00,Wunderground v.1.12,2013-01-18 00:45:00,
2013-01-17 17:50:00,22.5,20.0,30.27,SE,138,0.0,0.0,90,0.00,,,0.00,Wunderground v.1.12,2013-01-18 00:50:00,
2013-01-17 17:55:00,22.1,19.6,30.27,NE,39,0.0,0.0,90,0.00,,,0.00,Wunderground v.1.12,2013-01-18 00:55:00,
2013-01-17 18:00:00,21.8,19.3,30.28,NE,39,0.0,0.0,90,0.00,,,0.00,Wunderground v.1.12,2013-01-18 01:00:00,
2013-01-17 18:05:00,21.7,19.2,30.28,NE,39,0.0,0.0,90,0.00,,,0.00,Wunderground v.1.12,2013-01-18 01:05:00,
2013-01-17 18:10:00,21.8,19.3,30.27,NE,39,0.0,0.0,90,0.00,,,0.00,Wunderground v.1.12,2013-01-18 01:10:00,
2013-01-17 18:15:00,21.4,18.7,30.26,NE,49,0.0,0.0,89,0.00,,,0.00,Wunderground v.1.12,2013-01-18 01:15:00,
2013-01-17 18:20:00,21.3,18.8,30.27,NE,42,0.0,0.0,90,0.00,,,0.00,Wunderground v.1.12,2013-01-18 01:20:00,
2013-01-17 18:30:00,21.2,19.0,30.26,NE,42,0.0,0.0,91,0.00,,,0.00,Wunderground v.1.12,2013-01-18 01:30:00,
2013-01-17 18:35:00,21.1,18.9,30.26,NE,42,0.0,0.0,91,0.00,,,0.00,Wunderground v.1.12,2013-01-18 01:35:00,
2013-01-17 18:40:00,21.0,18.8,30.26,NE,42,0.0,0.0,91,0.00,,,0.00,Wunderground v.1.12,2013-01-18 01:40:00,
2013-01-17 18:45:00,20.9,18.7,30.25,NE,42,0.0,0.0,91,0.00,,,0.00,Wunderground v.1.12,2013-01-18 01:45:00,
2013-01-17 18:50:00,20.9,18.7,30.26,NE,42,0.0,0.0,91,0.00,,,0.00,Wunderground v.1.12,2013-01-18 01:50:00,
2013-01-17 19:00:00,20.7,18.5,30.25,NE,42,0.0,0.0,91,0.00,,,0.00,Wunderground v.1.12,2013-01-18 02:00:00,
2013-01-17 19:05:00,20.4,18.2,30.26,NE,42,0.0,0.0,91,0.00,,,0.00,Wunderground v.1.12,2013-01-18 02:05:00,
2013-01-17 19:10:00,20.5,18.0,30.26,NE,42,0.0,0.0,90,0.00,,,0.00,Wunderground v.1.12,2013-01-18 02:10:00,
2013-01-17 19:15:00,20.4,17.9,30.25,NE,42,0.0,0.0,90,0.00,,,0.00,Wunderground v.1.12,2013-01-18 02:15:00,
2013-01-17 19:20:00,20.4,17.9,30.25,ENE,61,0.0,0.0,90,0.00,,,0.00,Wunderground v.1.12,2013-01-18 02:20:00,
2013-01-17 19:30:00,19.9,17.4,30.25,ENE,69,0.0,0.0,90,0.00,,,0.00,Wunderground v.1.12,2013-01-18 02:30:00,
2013-01-17 19:35:00,19.7,17.2,30.25,ENE,69,0.0,0.0,90,0.00,,,0.00,Wunderground v.1.12,2013-01-18 02:35:00,
2013-01-17 19:40:00,19.7,17.2,30.24,ENE,66,0.0,0.0,90,0.00,,,0.00,Wunderground v.1.12,2013-01-18 02:40:00,
2013-01-17 19:45:00,19.6,17.1,30.24,ENE,66,0.0,0.0,90,0.00,,,0.00,Wunderground v.1.12,2013-01-18 02:45:00,
2013-01-17 19:50:00,19.3,16.8,30.24,NE,55,0.0,0.0,90,0.00,,,0.00,Wunderground v.1.12,2013-01-18 02:50:00,
2013-01-17 19:55:00,19.5,17.0,30.24,NE,55,0.0,0.0,90,0.00,,,0.00,Wunderground v.1.12,2013-01-18 02:55:00,
2013-01-17 20:00:00,19.3,16.8,30.24,NE,55,0.0,0.0,90,0.00,,,0.00,Wunderground v.1.12,2013-01-18 03:00:00,
2013-01-17 20:05:00,19.5,17.0,30.25,N/A,-737280,0.0,0.0,90,0.00,,,0.00,Wunderground v.1.12,2013-01-18 03:05:00,
2013-01-17 20:15:00,19.2,16.7,30.24,NE,53,0.0,0.0,90,0.00,,,0.00,Wunderground v.1.12,2013-01-18 03:15:00,
2013-01-17 20:20:00,19.1,16.9,30.24,NE,53,0.0,0.0,91,0.00,,,0.00,Wunderground v.1.12,2013-01-18 03:20:00,
2013-01-17 20:25:00,19.1,16.7,30.24,NE,53,0.0,0.0,90,0.00,,,0.00,Wunderground v.1.12,2013-01-18 03:25:00,
2013-01-17 20:35:00,18.8,16.4,30.24,NE,53,0.0,0.0,90,0.00,,,0.00,Wunderground v.1.12,2013-01-18 03:35:00,
2013-01-17 20:40:00,18.6,16.4,30.24,NE,53,0.0,0.0,91,0.00,,,0.00,Wunderground v.1.12,2013-01-18 03:40:00,
2013-01-17 20:45:00,18.7,16.5,30.24,NE,53,0.0,0.0,91,0.00,,,0.00,Wunderground v.1.12,2013-01-18 03:45:00,
2013-01-17 20:50:00,18.7,16.3,30.24,NE,53,0.0,0.0,90,0.00,,,0.00,Wunderground v.1.12,2013-01-18 03:50:00,
2013-01-17 20:55:00,18.4,16.0,30.24,NE,53,0.0,0.0,90,0.00,,,0.00,Wunderground v.1.12,2013-01-18 03:55:00,
2013-01-17 21:05:00,18.2,16.0,30.24,NE,49,0.0,0.0,91,0.00,,,0.00,Wunderground v.1.12,2013-01-18 04:05:00,
2013-01-17 21:15:00,18.1,15.9,30.25,NE,48,0.0,0.0,91,0.00,,,0.00,Wunderground v.1.12,2013-01-18 04:15:00,
2013-01-17 21:20:00,18.2,16.0,30.25,NE,48,0.0,0.0,91,0.00,,,0.00,Wunderground v.1.12,2013-01-18 04:20:00,
2013-01-17 21:25:00,18.1,15.9,30.25,NE,48,0.0,0.0,91,0.00,,,0.00,Wunderground v.1.12,2013-01-18 04:25:00,
2013-01-17 21:30:00,18.2,16.0,30.25,NE,48,0.0,0.0,91,0.00,,,0.00,Wunderground v.1.12,2013-01-18 04:30:00,
2013-01-17 21:35:00,18.1,15.7,30.25,NE,48,0.0,0.0,90,0.00,,,0.00,Wunderground v.1.12,2013-01-18 04:35:00,
2013-01-17 21:40:00,17.9,15.5,30.25,NE,48,0.0,0.0,90,0.00,,,0.00,Wunderground v.1.12,2013-01-18 04:40:00,
2013-01-17 21:50:00,17.6,15.2,30.25,NE,48,0.0,0.0,90,0.00,,,0.00,Wunderground v.1.12,2013-01-18 04:50:00,
2013-01-17 21:55:00,17.5,14.8,30.25,NE,48,0.0,0.0,89,0.00,,,0.00,Wunderground v.1.12,2013-01-18 04:55:00,
2013-01-17 22:05:00,17.4,15.0,30.25,NE,48,0.0,0.0,90,0.00,,,0.00,Wunderground v.1.12,2013-01-18 05:05:00,
2013-01-17 22:15:00,17.5,14.8,30.25,NE,48,0.0,0.0,89,0.00,,,0.00,Wunderground v.1.12,2013-01-18 05:15:00,
2013-01-17 22:20:00,17.3,14.6,30.25,NE,49,0.0,0.0,89,0.00,,,0.00,Wunderground v.1.12,2013-01-18 05:20:00,
2013-01-17 22:30:00,17.3,14.9,30.25,NE,49,0.0,0.0,90,0.00,,,0.00,Wunderground v.1.12,2013-01-18 05:30:00,
2013-01-17 22:35:00,17.2,14.8,30.25,NE,49,0.0,0.0,90,0.00,,,0.00,Wunderground v.1.12,2013-01-18 05:35:00,
2013-01-17 22:40:00,17.1,14.7,30.25,NE,49,0.0,0.0,90,0.00,,,0.00,Wunderground v.1.12,2013-01-18 05:40:00,
2013-01-17 22:45:00,17.1,14.7,30.24,NE,49,0.0,0.0,90,0.00,,,0.00,Wunderground v.1.12,2013-01-18 05:45:00,
2013-01-17 22:50:00,16.9,14.2,30.25,NE,49,0.0,0.0,89,0.00,,,0.00,Wunderground v.1.12,2013-01-18 05:50:00,
2013-01-17 22:55:00,17.0,14.3,30.25,NE,49,0.0,0.0,89,0.00,,,0.00,Wunderground v.1.12,2013-01-18 05:55:00,
2013-01-17 23:00:00,16.8,14.1,30.25,NE,49,0.0,0.0,89,0.00,,,0.00,Wunderground v.1.12,2013-01-18 06:00:00,
2013-01-17 23:05:00,16.9,14.5,30.24,NE,49,0.0,0.0,90,0.00,,,0.00,Wunderground v.1.12,2013-01-18 06:05:00,
2013-01-17 23:10:00,17.0,14.8,30.24,NE,49,0.0,0.0,91,0.00,,,0.00,Wunderground v.1.12,2013-01-18 06:10:00,
2013-01-17 23:15:00,16.8,14.4,30.25,NE,49,0.0,0.0,90,0.00,,,0.00,Wunderground v.1.12,2013-01-18 06:15:00,
2013-01-17 23:25:00,16.5,13.8,30.24,NE,49,0.0,0.0,89,0.00,,,0.00,Wunderground v.1.12,2013-01-18 06:25:00,
2013-01-17 23:30:00,16.7,14.3,30.25,NE,49,0.0,0.0,90,0.00,,,0.00,Wunderground v.1.12,2013-01-18 06:30:00,
2013-01-17 23:35:00,16.7,14.3,30.25,NE,49,0.0,0.0,90,0.00,,,0.00,Wunderground v.1.12,2013-01-18 06:35:00,
2013-01-17 23:40:00,16.6,13.9,30.25,NE,49,0.0,0.0,89,0.00,,,0.00,Wunderground v.1.12,2013-01-18 06:40:00,
2013-01-17 23:50:00,16.5,14.1,30.24,NE,49,0.0,0.0,90,0.00,,,0.00,Wunderground v.1.12,2013-01-18 06:50:00,
2013-01-17 23:55:00,16.5,14.1,30.24,NE,49,0.0,0.0,90,0.00,,,0.00,Wunderground v.1.12,2013-01-18 06:55:00,